Time,TemperatureF,DewpointF,PressureIn,WindDirection,WindDirectionDegrees,WindSpeedMPH,WindSpeedGustMPH,Humidity,HourlyPrecipIn,Conditions,Clouds,dailyrainin,SolarRadiationWatts/m^2,SoftwareType,DateUTC
2013-04-25 00:13:00,49.4,38.0,29.98,NE,51,0.0,3.0,65,0.00,,,0.00,0,weatherlink.com 1.10,2013-04-25 07:13:00,
2013-04-25 00:28:00,49.3,38.0,29.98,ENE,67,0.0,4.0,65,0.00,,,0.00,0,weatherlink.com 1.10,2013-04-25 07:28:00,
2013-04-25 00:43:00,49.3,38.0,29.98,NE,38,2.0,4.0,65,0.00,,,0.00,0,weatherlink.com 1.10,2013-04-25 07:43:00,
2013-04-25 00:58:00,49.2,38.0,29.98,NE,38,2.0,4.0,65,0.00,,,0.00,0,weatherlink.com 1.10,2013-04-25 07:58:00,
2013-04-25 01:13:00,49.2,38.0,29.98,NE,36,2.0,4.0,65,0.00,,,0.00,0,weatherlink.com 1.10,2013-04-25 08:13:00,
2013-04-25 01:28:00,49.2,38.0,29.99,NE,38,0.0,4.0,65,0.00,,,0.00,0,weatherlink.com 1.10,2013-04-25 08:28:00,
2013-04-25 01:43:00,49.2,38.0,29.99,NE,36,2.0,5.0,66,0.00,,,0.00,0,weatherlink.com 1.10,2013-04-25 08:43:00,
2013-04-25 01:58:00,49.1,38.0,29.99,NNE,26,0.0,6.0,66,0.00,,,0.00,0,weatherlink.com 1.10,2013-04-25 08:58:00,
2013-04-25 02:13:00,49.1,38.0,29.99,NE,39,2.0,6.0,66,0.00,,,0.00,0,weatherlink.com 1.10,2013-04-25 09:13:00,
2013-04-25 02:28:00,49.1,38.0,29.99,NE,46,3.0,6.0,66,0.00,,,0.00,0,weatherlink.com 1.10,2013-04-25 09:28:00,
2013-04-25 02:43:00,49.1,38.0,29.99,NNE,32,0.0,6.0,66,0.00,,,0.00,0,weatherlink.com 1.10,2013-04-25 09:43:00,
2013-04-25 02:58:00,49.1,38.0,29.99,NNE,17,6.0,8.0,66,0.00,,,0.00,0,weatherlink.com 1.10,2013-04-25 09:58:00,
2013-04-25 03:13:00,49.2,38.0,29.99,NNE,23,2.0,7.0,66,0.00,,,0.00,0,weatherlink.com 1.10,2013-04-25 10:13:00,
2013-04-25 03:28:00,49.3,38.0,29.99,NNE,31,2.0,7.0,66,0.00,,,0.00,0,weatherlink.com 1.10,2013-04-25 10:28:00,
2013-04-25 03:43:00,49.4,38.0,29.99,NNE,31,6.0,6.0,66,0.00,,,0.00,0,weatherlink.com 1.10,2013-04-25 10:43:00,
2013-04-25 03:58:00,49.4,38.0,30.00,ENE,78,1.0,7.0,66,0.00,,,0.00,0,weatherlink.com 1.10,2013-04-25 10:58:00,
2013-04-25 04:13:00,49.5,38.0,30.00,NNE,19,2.0,5.0,66,0.00,,,0.00,0,weatherlink.com 1.10,2013-04-25 11:13:00,
2013-04-25 04:28:00,49.5,38.0,30.01,NE,34,3.0,6.0,66,0.00,,,0.00,0,weatherlink.com 1.10,2013-04-25 11:28:00,
2013-04-25 04:43:00,49.5,38.0,30.01,NE,37,1.0,7.0,66,0.00,,,0.00,0,weatherlink.com 1.10,2013-04-25 11:43:00,
2013-04-25 04:58:00,49.5,38.0,30.00,NE,38,2.0,4.0,66,0.00,,,0.00,0,weatherlink.com 1.10,2013-04-25 11:58:00,
2013-04-25 05:13:00,49.5,38.0,30.00,North,5,1.0,3.0,66,0.00,,,0.00,0,weatherlink.com 1.10,2013-04-25 12:13:00,
2013-04-25 05:28:00,49.5,38.0,30.00,NNE,28,0.0,4.0,66,0.00,,,0.00,0,weatherlink.com 1.10,2013-04-25 12:28:00,
2013-04-25 05:43:00,49.5,38.0,30.01,NNE,24,3.0,5.0,66,0.00,,,0.00,0,weatherlink.com 1.10,2013-04-25 12:43:00,
2013-04-25 05:59:00,49.6,39.0,30.00,NNE,26,2.0,5.0,66,0.00,,,0.00,0,weatherlink.com 1.10,2013-04-25 12:59:00,
2013-04-25 06:14:00,49.6,39.0,30.01,NE,34,2.0,6.0,66,0.00,,,0.00,0,weatherlink.com 1.10,2013-04-25 13:14:00,
2013-04-25 06:29:00,49.6,39.0,30.02,NE,36,2.0,7.0,66,0.00,,,0.00,0,weatherlink.com 1.10,2013-04-25 13:29:00,
2013-04-25 06:44:00,49.6,39.0,30.02,ENE,57,0.0,6.0,66,0.00,,,0.00,5,weatherlink.com 1.10,2013-04-25 13:44:00,
2013-04-25 06:59:00,49.8,39.0,30.02,NE,46,2.0,5.0,66,0.00,,,0.00,11,weatherlink.com 1.10,2013-04-25 13:59:00,
2013-04-25 07:14:00,49.9,39.0,30.03,NE,44,3.0,5.0,66,0.00,,,0.00,16,weatherlink.com 1.10,2013-04-25 14:14:00,
2013-04-25 07:29:00,50.2,39.0,30.03,NE,37,3.0,5.0,66,0.00,,,0.00,25,weatherlink.com 1.10,2013-04-25 14:29:00,
2013-04-25 07:44:00,50.6,40.0,30.04,NE,38,0.0,4.0,66,0.00,,,0.00,33,weatherlink.com 1.10,2013-04-25 14:44:00,
2013-04-25 07:59:00,50.8,40.0,30.04,NE,38,0.0,3.0,66,0.00,,,0.00,42,weatherlink.com 1.10,2013-04-25 14:59:00,
2013-04-25 08:14:00,51.2,40.0,30.05,NE,38,1.0,2.0,66,0.00,,,0.00,54,weatherlink.com 1.10,2013-04-25 15:14:00,
2013-04-25 08:29:00,51.5,40.0,30.05,NE,37,4.0,4.0,66,0.00,,,0.00,65,weatherlink.com 1.10,2013-04-25 15:29:00,
2013-04-25 08:44:00,51.8,41.0,30.05,NE,41,0.0,3.0,66,0.00,,,0.00,74,weatherlink.com 1.10,2013-04-25 15:44:00,
2013-04-25 08:59:00,52.2,41.0,30.06,NE,42,0.0,2.0,65,0.00,,,0.00,86,weatherlink.com 1.10,2013-04-25 15:59:00,
2013-04-25 09:14:00,52.5,41.0,30.07,NE,42,0.0,0.0,65,0.00,,,0.00,98,weatherlink.com 1.10,2013-04-25 16:14:00,
2013-04-25 09:29:00,52.8,41.0,30.07,NE,42,1.0,2.0,65,0.00,,,0.00,111,weatherlink.com 1.10,2013-04-25 16:29:00,
2013-04-25 09:44:00,53.4,42.0,30.07,ENE,69,2.0,3.0,65,0.00,,,0.00,137,weatherlink.com 1.10,2013-04-25 16:44:00,
2013-04-25 09:59:00,53.7,42.0,30.07,ENE,69,0.0,1.0,64,0.00,,,0.00,149,weatherlink.com 1.10,2013-04-25 16:59:00,
2013-04-25 10:14:00,54.5,42.0,30.08,SE,139,3.0,4.0,64,0.00,,,0.00,176,weatherlink.com 1.10,2013-04-25 17:14:00,
2013-04-25 10:29:00,55.0,43.0,30.09,SSE,148,2.0,4.0,64,0.00,,,0.00,185,weatherlink.com 1.10,2013-04-25 17:29:00,
2013-04-25 10:44:00,55.2,43.0,30.09,South,170,1.0,5.0,64,0.00,,,0.00,207,weatherlink.com 1.10,2013-04-25 17:44:00,
2013-04-25 10:59:00,55.8,44.0,30.09,South,175,3.0,4.0,64,0.00,,,0.00,258,weatherlink.com 1.10,2013-04-25 17:59:00,
2013-04-25 11:14:00,56.2,44.0,30.09,SSW,198,3.0,5.0,63,0.00,,,0.00,278,weatherlink.com 1.10,2013-04-25 18:14:00,
2013-04-25 11:30:00,56.8,44.0,30.09,SSE,164,1.0,4.0,63,0.00,,,0.00,283,weatherlink.com 1.10,2013-04-25 18:30:00,
2013-04-25 11:45:00,56.8,44.0,30.10,South,190,5.0,5.0,63,0.00,,,0.00,322,weatherlink.com 1.10,2013-04-25 18:45:00,
2013-04-25 12:00:00,57.3,45.0,30.10,South,187,3.0,6.0,63,0.00,,,0.00,343,weatherlink.com 1.10,2013-04-25 19:00:00,
2013-04-25 12:15:00,57.4,44.0,30.10,SSW,192,3.0,4.0,62,0.00,,,0.00,397,weatherlink.com 1.10,2013-04-25 19:15:00,
2013-04-25 12:30:00,57.1,44.0,30.10,SSW,194,3.0,4.0,62,0.00,,,0.00,468,weatherlink.com 1.10,2013-04-25 19:30:00,
2013-04-25 12:45:00,59.0,46.0,30.10,South,187,4.0,6.0,62,0.00,,,0.00,529,weatherlink.com 1.10,2013-04-25 19:45:00,
2013-04-25 13:00:00,59.8,46.0,30.10,SSW,197,4.0,5.0,61,0.00,,,0.00,564,weatherlink.com 1.10,2013-04-25 20:00:00,
2013-04-25 13:15:00,60.0,46.0,30.10,SSW,199,4.0,6.0,60,0.00,,,0.00,582,weatherlink.com 1.10,2013-04-25 20:15:00,
2013-04-25 13:30:00,59.6,46.0,30.11,SSW,206,4.0,6.0,61,0.00,,,0.00,642,weatherlink.com 1.10,2013-04-25 20:30:00,
2013-04-25 13:45:00,60.4,46.0,30.11,SSW,198,4.0,6.0,60,0.00,,,0.00,780,weatherlink.com 1.10,2013-04-25 20:45:00,
2013-04-25 14:00:00,61.5,47.0,30.11,South,185,1.0,6.0,60,0.00,,,0.00,946,weatherlink.com 1.10,2013-04-25 21:00:00,
2013-04-25 14:15:00,61.0,47.0,30.11,South,185,5.0,7.0,60,0.00,,,0.00,926,weatherlink.com 1.10,2013-04-25 21:15:00,
2013-04-25 14:30:00,61.5,47.0,30.11,South,188,3.0,6.0,60,0.00,,,0.00,911,weatherlink.com 1.10,2013-04-25 21:30:00,
2013-04-25 14:45:00,62.3,47.0,30.12,South,179,5.0,7.0,58,0.00,,,0.00,886,weatherlink.com 1.10,2013-04-25 21:45:00,
2013-04-25 15:00:00,62.7,47.0,30.11,South,183,4.0,7.0,58,0.00,,,0.00,863,weatherlink.com 1.10,2013-04-25 22:00:00,
2013-04-25 15:15:00,62.6,47.0,30.12,South,188,6.0,7.0,58,0.00,,,0.00,831,weatherlink.com 1.10,2013-04-25 22:15:00,
2013-04-25 15:30:00,62.3,47.0,30.13,SSW,192,4.0,7.0,57,0.00,,,0.00,816,weatherlink.com 1.10,2013-04-25 22:30:00,
2013-04-25 15:45:00,61.9,47.0,30.12,South,190,5.0,6.0,59,0.00,,,0.00,745,weatherlink.com 1.10,2013-04-25 22:45:00,
2013-04-25 16:00:00,62.4,48.0,30.11,SSW,202,4.0,6.0,59,0.00,,,0.00,712,weatherlink.com 1.10,2013-04-25 23:00:00,
2013-04-25 16:15:00,61.6,46.0,30.11,SW,217,1.0,6.0,57,0.00,,,0.00,682,weatherlink.com 1.10,2013-04-25 23:15:00,
2013-04-25 16:30:00,60.6,46.0,30.11,WSW,257,2.0,7.0,59,0.00,,,0.00,598,weatherlink.com 1.10,2013-04-25 23:30:00,
2013-04-25 16:45:00,58.5,44.0,30.11,SSW,195,4.0,6.0,60,0.00,,,0.00,564,weatherlink.com 1.10,2013-04-25 23:45:00,
2013-04-25 17:00:00,61.2,47.0,30.11,SW,233,2.0,6.0,59,0.00,,,0.00,566,weatherlink.com 1.10,2013-04-26 00:00:00,
2013-04-25 17:15:00,61.4,47.0,30.11,SSW,205,3.0,6.0,59,0.00,,,0.00,512,weatherlink.com 1.10,2013-04-26 00:15:00,
2013-04-25 17:30:00,58.6,45.0,30.11,SW,236,4.0,7.0,60,0.00,,,0.00,455,weatherlink.com 1.10,2013-04-26 00:30:00,
2013-04-25 17:45:00,56.9,43.0,30.11,SW,229,4.0,6.0,61,0.00,,,0.00,406,weatherlink.com 1.10,2013-04-26 00:45:00,
2013-04-25 18:00:00,57.4,44.0,30.11,SW,225,5.0,7.0,62,0.00,,,0.00,345,weatherlink.com 1.10,2013-04-26 01:00:00,
2013-04-25 18:15:00,58.0,44.0,30.11,SW,227,2.0,6.0,61,0.00,,,0.00,211,weatherlink.com 1.10,2013-04-26 01:15:00,
2013-04-25 18:30:00,57.5,44.0,30.11,SW,233,3.0,6.0,62,0.00,,,0.00,91,weatherlink.com 1.10,2013-04-26 01:30:00,
2013-04-25 18:45:00,56.0,43.0,30.10,SW,236,0.0,3.0,62,0.00,,,0.00,83,weatherlink.com 1.10,2013-04-26 01:45:00,
2013-04-25 19:00:00,55.1,41.0,30.11,West,266,1.0,4.0,59,0.00,,,0.00,98,weatherlink.com 1.10,2013-04-26 02:00:00,
2013-04-25 19:15:00,54.7,39.0,30.11,WNW,287,0.0,6.0,56,0.00,,,0.00,95,weatherlink.com 1.10,2013-04-26 02:15:00,
2013-04-25 19:30:00,54.1,40.0,30.11,West,267,0.0,4.0,60,0.00,,,0.00,83,weatherlink.com 1.10,2013-04-26 02:30:00,
2013-04-25 19:45:00,53.8,40.0,30.11,West,274,0.0,6.0,59,0.00,,,0.00,32,weatherlink.com 1.10,2013-04-26 02:45:00,
2013-04-25 20:01:00,53.3,39.0,30.12,West,261,2.0,6.0,58,0.00,,,0.00,5,weatherlink.com 1.10,2013-04-26 03:01:00,
2013-04-25 20:16:00,52.8,36.0,30.12,WNW,292,0.0,5.0,53,0.00,,,0.00,0,weatherlink.com 1.10,2013-04-26 03:16:00,
2013-04-25 20:31:00,52.6,38.0,30.12,WNW,282,1.0,5.0,59,0.00,,,0.00,0,weatherlink.com 1.10,2013-04-26 03:31:00,
2013-04-25 20:46:00,52.6,38.0,30.13,West,275,0.0,4.0,58,0.00,,,0.00,0,weatherlink.com 1.10,2013-04-26 03:46:00,
2013-04-25 21:01:00,52.6,38.0,30.13,WNW,295,1.0,4.0,59,0.00,,,0.00,0,weatherlink.com 1.10,2013-04-26 04:01:00,
2013-04-25 21:16:00,52.5,38.0,30.14,WNW,298,0.0,5.0,59,0.00,,,0.00,0,weatherlink.com 1.10,2013-04-26 04:16:00,
2013-04-25 21:31:00,52.4,39.0,30.14,WNW,291,2.0,4.0,60,0.00,,,0.00,0,weatherlink.com 1.10,2013-04-26 04:31:00,
2013-04-25 21:46:00,52.3,36.0,30.15,West,274,2.0,5.0,54,0.00,,,0.00,0,weatherlink.com 1.10,2013-04-26 04:46:00,
2013-04-25 22:01:00,52.1,37.0,30.15,West,270,0.0,5.0,57,0.00,,,0.00,0,weatherlink.com 1.10,2013-04-26 05:01:00,
2013-04-25 22:16:00,52.1,36.0,30.15,West,280,3.0,4.0,55,0.00,,,0.00,0,weatherlink.com 1.10,2013-04-26 05:16:00,
2013-04-25 22:31:00,52.0,37.0,30.15,West,266,4.0,6.0,56,0.00,,,0.00,0,weatherlink.com 1.10,2013-04-26 05:31:00,
2013-04-25 22:46:00,51.8,32.0,30.15,WNW,283,4.0,5.0,47,0.00,,,0.00,0,weatherlink.com 1.10,2013-04-26 05:46:00,
2013-04-25 23:01:00,51.7,31.0,30.14,West,280,2.0,5.0,45,0.00,,,0.00,0,weatherlink.com 1.10,2013-04-26 06:01:00,
2013-04-25 23:16:00,51.6,32.0,30.14,WNW,282,2.0,5.0,47,0.00,,,0.00,0,weatherlink.com 1.10,2013-04-26 06:16:00,
2013-04-25 23:31:00,51.6,34.0,30.14,WNW,291,0.0,5.0,52,0.00,,,0.00,0,weatherlink.com 1.10,2013-04-26 06:31:00,
2013-04-25 23:46:00,51.6,33.0,30.14,WNW,285,0.0,5.0,49,0.00,,,0.00,0,weatherlink.com 1.10,2013-04-26 06:46:00,